Time,TemperatureF,DewpointF,PressureIn,WindDirection,WindDirectionDegrees,WindSpeedMPH,WindSpeedGustMPH,Humidity,HourlyPrecipIn,Conditions,Clouds,dailyrainin,SoftwareType,DateUTC
2013-01-25 00:02:00,62.0,55.0,30.12,SW,229,1.0,6.0,77,0.00,,,-99.99,,2013-01-25 06:02:00,
2013-01-25 00:11:00,62.0,55.0,30.12,SW,229,1.0,6.0,77,0.00,,,-99.99,,2013-01-25 06:11:00,
2013-01-25 00:21:00,61.0,54.0,30.11,WSW,245,2.0,3.0,79,0.00,,,-99.99,,2013-01-25 06:21:00,
2013-01-25 00:32:00,61.0,54.0,30.11,West,259,2.0,4.0,79,0.00,,,-99.99,,2013-01-25 06:32:00,
2013-01-25 00:42:00,61.0,54.0,30.11,WSW,251,2.0,4.0,79,0.00,,,-99.99,,2013-01-25 06:42:00,
2013-01-25 00:52:00,61.0,54.0,30.11,WSW,251,2.0,4.0,79,0.00,,,-99.99,,2013-01-25 06:52:00,
2013-01-25 01:02:00,61.0,54.0,30.11,West,260,2.0,4.0,78,0.00,,,-99.99,,2013-01-25 07:02:00,
2013-01-25 01:11:00,61.0,54.0,30.11,West,260,2.0,4.0,78,0.00,,,-99.99,,2013-01-25 07:11:00,
2013-01-25 01:21:00,61.0,54.0,30.11,West,260,2.0,4.0,78,0.00,,,-99.99,,2013-01-25 07:21:00,
2013-01-25 01:31:00,61.0,54.0,30.11,West,260,2.0,4.0,78,0.00,,,-99.99,,2013-01-25 07:31:00,
2013-01-25 01:42:00,61.0,54.0,30.11,SW,234,2.0,5.0,77,0.00,,,-99.99,,2013-01-25 07:42:00,
2013-01-25 01:52:00,61.0,54.0,30.11,SW,234,2.0,5.0,77,0.00,,,-99.99,,2013-01-25 07:52:00,
2013-01-25 02:02:00,61.0,54.0,30.10,WSW,239,2.0,5.0,77,0.00,,,-99.99,,2013-01-25 08:02:00,
2013-01-25 02:11:00,61.0,54.0,30.11,WSW,252,3.0,5.0,77,0.00,,,-99.99,,2013-01-25 08:11:00,
2013-01-25 02:21:00,61.0,54.0,30.11,WSW,252,3.0,5.0,77,0.00,,,-99.99,,2013-01-25 08:21:00,
2013-01-25 02:32:00,61.0,53.0,30.10,WSW,250,3.0,6.0,76,0.00,,,-99.99,,2013-01-25 08:32:00,
2013-01-25 02:41:00,61.0,53.0,30.10,WSW,250,3.0,6.0,76,0.00,,,-99.99,,2013-01-25 08:41:00,
2013-01-25 02:52:00,62.0,54.0,30.10,SW,233,5.0,6.0,76,0.00,,,-99.99,,2013-01-25 08:52:00,
2013-01-25 03:01:00,63.0,55.0,30.10,SW,217,5.0,12.0,74,0.00,,,-99.99,,2013-01-25 09:01:00,
2013-01-25 03:11:00,63.0,54.0,30.10,WSW,252,4.0,11.0,73,0.00,,,-99.99,,2013-01-25 09:11:00,
2013-01-25 03:21:00,63.0,54.0,30.10,WSW,252,4.0,11.0,73,0.00,,,-99.99,,2013-01-25 09:21:00,
2013-01-25 03:31:00,63.0,54.0,30.09,WSW,238,4.0,11.0,73,0.00,,,-99.99,,2013-01-25 09:31:00,
2013-01-25 03:42:00,63.0,54.0,30.09,WSW,238,4.0,11.0,73,0.00,,,-99.99,,2013-01-25 09:42:00,
2013-01-25 03:51:00,63.0,55.0,30.09,SW,225,5.0,10.0,75,0.00,,,-99.99,,2013-01-25 09:51:00,
2013-01-25 04:02:00,62.0,54.0,30.09,SW,231,4.0,5.0,76,0.00,,,-99.99,,2013-01-25 10:02:00,
2013-01-25 04:12:00,61.0,54.0,30.09,SW,228,3.0,5.0,77,0.00,,,-99.99,,2013-01-25 10:12:00,
2013-01-25 04:21:00,61.0,54.0,30.09,SW,228,3.0,5.0,77,0.00,,,-99.99,,2013-01-25 10:21:00,
2013-01-25 04:32:00,60.0,54.0,30.09,SW,218,1.0,4.0,80,0.00,,,-99.99,,2013-01-25 10:32:00,
2013-01-25 04:42:00,60.0,54.0,30.09,SW,218,1.0,4.0,80,0.00,,,-99.99,,2013-01-25 10:42:00,
2013-01-25 04:51:00,60.0,54.0,30.08,WSW,240,3.0,4.0,81,0.00,,,-99.99,,2013-01-25 10:51:00,
2013-01-25 05:02:00,59.0,54.0,30.09,SSW,211,3.0,4.0,83,0.00,,,-99.99,,2013-01-25 11:02:00,
2013-01-25 05:11:00,59.0,54.0,30.09,SSW,211,3.0,4.0,83,0.00,,,-99.99,,2013-01-25 11:11:00,
2013-01-25 05:22:00,59.0,54.0,30.08,SSW,210,2.0,4.0,84,0.00,,,-99.99,,2013-01-25 11:22:00,
2013-01-25 05:32:00,59.0,54.0,30.08,SSW,210,2.0,4.0,84,0.00,,,-99.99,,2013-01-25 11:32:00,
2013-01-25 05:42:00,59.0,54.0,30.08,SSW,210,2.0,4.0,84,0.00,,,-99.99,,2013-01-25 11:42:00,
2013-01-25 05:52:00,58.0,54.0,30.09,SW,215,2.0,3.0,87,0.00,,,-99.99,,2013-01-25 11:52:00,
2013-01-25 06:02:00,58.0,54.0,30.09,SW,215,2.0,3.0,87,0.00,,,-99.99,,2013-01-25 12:02:00,
2013-01-25 06:11:00,58.0,54.0,30.09,SW,215,2.0,3.0,87,0.00,,,-99.99,,2013-01-25 12:11:00,
2013-01-25 06:22:00,57.0,54.0,30.08,SSW,197,2.0,3.0,90,0.00,,,-99.99,,2013-01-25 12:22:00,
2013-01-25 06:32:00,57.0,54.0,30.08,SSW,197,2.0,3.0,90,0.00,,,-99.99,,2013-01-25 12:32:00,
2013-01-25 06:42:00,57.0,54.0,30.08,SSW,197,2.0,3.0,90,0.00,,,-99.99,,2013-01-25 12:42:00,
2013-01-25 06:53:00,57.0,54.0,30.09,South,188,0.0,3.0,90,0.00,,,-99.99,,2013-01-25 12:53:00,
2013-01-25 07:02:00,57.0,54.0,30.09,SSW,206,2.0,3.0,91,0.00,,,-99.99,,2013-01-25 13:02:00,
2013-01-25 07:11:00,57.0,54.0,30.09,SSW,206,2.0,3.0,91,0.00,,,-99.99,,2013-01-25 13:11:00,
2013-01-25 07:22:00,56.0,54.0,30.10,SSW,212,2.0,3.0,92,0.00,,,-99.99,,2013-01-25 13:22:00,
2013-01-25 07:32:00,56.0,54.0,30.10,SSW,212,2.0,3.0,92,0.00,,,-99.99,,2013-01-25 13:32:00,
2013-01-25 07:42:00,56.0,54.0,30.10,SSW,212,2.0,3.0,92,0.00,,,-99.99,,2013-01-25 13:42:00,
2013-01-25 07:52:00,56.0,54.0,30.10,SW,219,1.0,1.0,93,0.00,,,-99.99,,2013-01-25 13:52:00,
2013-01-25 08:03:00,56.0,54.0,30.10,SW,219,1.0,1.0,93,0.00,,,-99.99,,2013-01-25 14:03:00,
2013-01-25 08:12:00,56.0,54.0,30.10,SW,219,1.0,1.0,93,0.00,,,-99.99,,2013-01-25 14:12:00,
2013-01-25 08:22:00,57.0,55.0,30.11,SW,232,0.0,1.0,93,0.00,,,-99.99,,2013-01-25 14:22:00,
2013-01-25 08:32:00,57.0,55.0,30.11,SW,232,0.0,0.0,94,0.00,,,-99.99,,2013-01-25 14:32:00,
2013-01-25 08:42:00,57.0,55.0,30.11,SW,232,0.0,0.0,94,0.00,,,-99.99,,2013-01-25 14:42:00,
2013-01-25 08:52:00,59.0,57.0,30.11,SW,232,0.0,0.0,92,0.00,,,-99.99,,2013-01-25 14:52:00,
2013-01-25 09:02:00,60.0,57.0,30.12,West,273,1.0,3.0,89,0.00,,,-99.99,,2013-01-25 15:02:00,
2013-01-25 09:12:00,60.0,57.0,30.12,West,273,1.0,3.0,89,0.00,,,-99.99,,2013-01-25 15:12:00,
2013-01-25 09:22:00,61.0,57.0,30.13,WSW,257,2.0,4.0,86,0.00,,,-99.99,,2013-01-25 15:22:00,
2013-01-25 09:32:00,62.0,57.0,30.12,West,266,3.0,6.0,83,0.00,,,-99.99,,2013-01-25 15:32:00,
2013-01-25 09:42:00,62.0,57.0,30.12,West,266,3.0,6.0,83,0.00,,,-99.99,,2013-01-25 15:42:00,
2013-01-25 09:52:00,64.0,58.0,30.12,West,263,5.0,8.0,81,0.00,,,-99.99,,2013-01-25 15:52:00,
2013-01-25 10:03:00,64.0,58.0,30.12,West,263,5.0,8.0,81,0.00,,,-99.99,,2013-01-25 16:03:00,
2013-01-25 10:12:00,64.0,58.0,30.12,West,263,5.0,8.0,81,0.00,,,-99.99,,2013-01-25 16:12:00,
2013-01-25 10:22:00,64.0,58.0,30.12,West,263,5.0,8.0,81,0.00,,,-99.99,,2013-01-25 16:22:00,
2013-01-25 10:32:00,68.0,58.0,30.14,SSW,192,4.0,10.0,70,0.00,,,-99.99,,2013-01-25 16:32:00,
2013-01-25 10:43:00,68.0,58.0,30.14,SSW,192,4.0,10.0,70,0.00,,,-99.99,,2013-01-25 16:43:00,
2013-01-25 10:53:00,68.0,57.0,30.14,NW,304,3.0,12.0,67,0.00,,,-99.99,,2013-01-25 16:53:00,
2013-01-25 11:02:00,70.0,57.0,30.13,SW,217,7.0,9.0,64,0.00,,,-99.99,,2013-01-25 17:02:00,
2013-01-25 11:12:00,70.0,57.0,30.13,SW,217,7.0,9.0,64,0.00,,,-99.99,,2013-01-25 17:12:00,
2013-01-25 11:22:00,71.0,57.0,30.14,West,262,3.0,9.0,61,0.00,,,-99.99,,2013-01-25 17:22:00,
2013-01-25 11:32:00,71.0,57.0,30.14,West,262,3.0,9.0,61,0.00,,,-99.99,,2013-01-25 17:32:00,
2013-01-25 11:42:00,71.0,57.0,30.14,West,262,3.0,9.0,61,0.00,,,-99.99,,2013-01-25 17:42:00,
2013-01-25 11:53:00,72.0,56.0,30.13,West,259,6.0,9.0,58,0.00,,,-99.99,,2013-01-25 17:53:00,
2013-01-25 12:02:00,72.0,55.0,30.12,SW,235,4.0,10.0,55,0.00,,,-99.99,,2013-01-25 18:02:00,
2013-01-25 12:12:00,72.0,55.0,30.12,SW,235,4.0,10.0,55,0.00,,,-99.99,,2013-01-25 18:12:00,
2013-01-25 12:23:00,73.0,54.0,30.12,WSW,240,4.0,11.0,52,0.00,,,-99.99,,2013-01-25 18:23:00,
2013-01-25 12:33:00,74.0,55.0,30.11,SSW,212,5.0,10.0,52,0.00,,,-99.99,,2013-01-25 18:33:00,
2013-01-25 12:42:00,74.0,55.0,30.11,SSW,212,5.0,10.0,52,0.00,,,-99.99,,2013-01-25 18:42:00,
2013-01-25 12:52:00,75.0,55.0,30.09,SSW,207,4.0,9.0,50,0.00,,,-99.99,,2013-01-25 18:52:00,
2013-01-25 13:03:00,76.0,53.0,30.08,SSW,203,7.0,9.0,45,0.00,,,-99.99,,2013-01-25 19:03:00,
2013-01-25 13:12:00,76.0,53.0,30.08,SSW,203,7.0,9.0,45,0.00,,,-99.99,,2013-01-25 19:12:00,
2013-01-25 13:22:00,76.0,53.0,30.08,SSW,203,7.0,9.0,45,0.00,,,-99.99,,2013-01-25 19:22:00,
2013-01-25 13:32:00,78.0,53.0,30.07,WSW,242,4.0,7.0,42,0.00,,,-99.99,,2013-01-25 19:32:00,
2013-01-25 13:42:00,78.0,53.0,30.07,WSW,242,4.0,7.0,42,0.00,,,-99.99,,2013-01-25 19:42:00,
2013-01-25 13:53:00,79.0,51.0,30.05,West,266,1.0,6.0,38,0.00,,,-99.99,,2013-01-25 19:53:00,
2013-01-25 14:02:00,79.0,51.0,30.05,West,266,1.0,6.0,38,0.00,,,-99.99,,2013-01-25 20:02:00,
2013-01-25 14:12:00,79.0,51.0,30.05,West,266,1.0,6.0,38,0.00,,,-99.99,,2013-01-25 20:12:00,
2013-01-25 14:22:00,79.0,52.0,30.04,SSW,205,2.0,7.0,39,0.00,,,-99.99,,2013-01-25 20:22:00,
2013-01-25 14:32:00,80.0,52.0,30.03,ESE,110,2.0,6.0,38,0.00,,,-99.99,,2013-01-25 20:32:00,
2013-01-25 14:42:00,80.0,52.0,30.03,ESE,110,2.0,6.0,38,0.00,,,-99.99,,2013-01-25 20:42:00,
2013-01-25 14:52:00,80.0,51.0,30.03,South,191,5.0,9.0,37,0.00,,,-99.99,,2013-01-25 20:52:00,
2013-01-25 15:02:00,81.0,49.0,30.02,WSW,248,2.0,7.0,33,0.00,,,-99.99,,2013-01-25 21:02:00,
2013-01-25 15:11:00,81.0,49.0,30.02,WSW,248,2.0,7.0,33,0.00,,,-99.99,,2013-01-25 21:11:00,
2013-01-25 15:22:00,81.0,49.0,30.02,WSW,248,2.0,7.0,33,0.00,,,-99.99,,2013-01-25 21:22:00,
2013-01-25 15:32:00,81.0,49.0,30.02,WSW,248,2.0,7.0,33,0.00,,,-99.99,,2013-01-25 21:32:00,
2013-01-25 15:42:00,81.0,49.0,30.02,WSW,248,2.0,7.0,33,0.00,,,-99.99,,2013-01-25 21:42:00,
2013-01-25 15:52:00,76.0,52.0,30.02,NNE,18,8.0,11.0,43,0.00,,,-99.99,,2013-01-25 21:52:00,
2013-01-25 16:03:00,76.0,52.0,30.02,NNE,18,8.0,11.0,43,0.00,,,-99.99,,2013-01-25 22:03:00,
2013-01-25 16:12:00,76.0,52.0,30.02,NNE,18,8.0,11.0,43,0.00,,,-99.99,,2013-01-25 22:12:00,
2013-01-25 16:22:00,76.0,52.0,30.02,NNE,18,8.0,11.0,43,0.00,,,-99.99,,2013-01-25 22:22:00,
2013-01-25 16:32:00,76.0,52.0,30.02,NNE,18,8.0,11.0,43,0.00,,,-99.99,,2013-01-25 22:32:00,
2013-01-25 17:22:00,75.0,52.0,30.03,NE,44,3.0,13.0,45,0.00,,,-99.99,,2013-01-25 23:22:00,
2013-01-25 17:32:00,74.0,52.0,30.03,NNE,27,6.0,11.0,46,0.00,,,-99.99,,2013-01-25 23:32:00,
2013-01-25 17:42:00,74.0,52.0,30.03,NNE,27,6.0,11.0,46,0.00,,,-99.99,,2013-01-25 23:42:00,
2013-01-25 17:52:00,74.0,52.0,30.03,NNE,27,6.0,11.0,46,0.00,,,-99.99,,2013-01-25 23:52:00,
2013-01-25 18:02:00,73.0,50.0,30.05,NW,313,9.0,13.0,44,0.00,,,-99.99,,2013-01-26 00:02:00,
2013-01-25 18:11:00,73.0,50.0,30.05,NW,313,9.0,13.0,44,0.00,,,-99.99,,2013-01-26 00:11:00,
2013-01-25 18:22:00,70.0,48.0,30.06,North,360,5.0,14.0,45,0.00,,,-99.99,,2013-01-26 00:22:00,
2013-01-25 18:32:00,68.0,48.0,30.06,North,353,6.0,12.0,48,0.00,,,-99.99,,2013-01-26 00:32:00,
2013-01-25 18:42:00,68.0,48.0,30.06,North,353,6.0,12.0,48,0.00,,,-99.99,,2013-01-26 00:42:00,
2013-01-25 18:52:00,67.0,48.0,30.07,NNE,27,1.0,9.0,50,0.00,,,-99.99,,2013-01-26 00:52:00,
2013-01-25 19:02:00,66.0,47.0,30.07,North,9,4.0,9.0,51,0.00,,,-99.99,,2013-01-26 01:02:00,
2013-01-25 19:11:00,66.0,47.0,30.07,North,9,4.0,9.0,51,0.00,,,-99.99,,2013-01-26 01:11:00,
2013-01-25 19:22:00,66.0,47.0,30.07,North,9,4.0,9.0,51,0.00,,,-99.99,,2013-01-26 01:22:00,
2013-01-25 19:32:00,64.0,47.0,30.09,ENE,63,5.0,10.0,54,0.00,,,-99.99,,2013-01-26 01:32:00,
2013-01-25 19:42:00,64.0,47.0,30.09,ENE,63,5.0,10.0,54,0.00,,,-99.99,,2013-01-26 01:42:00,
2013-01-25 19:52:00,64.0,47.0,30.09,ENE,63,5.0,10.0,54,0.00,,,-99.99,,2013-01-26 01:52:00,
2013-01-25 20:01:00,62.0,47.0,30.10,NNE,20,4.0,8.0,57,0.00,,,-99.99,,2013-01-26 02:01:00,
2013-01-25 20:11:00,62.0,47.0,30.10,NNE,20,4.0,8.0,57,0.00,,,-99.99,,2013-01-26 02:11:00,
2013-01-25 20:22:00,62.0,47.0,30.10,NNE,20,4.0,8.0,57,0.00,,,-99.99,,2013-01-26 02:22:00,
2013-01-25 20:32:00,60.0,46.0,30.12,NE,37,7.0,8.0,59,0.00,,,-99.99,,2013-01-26 02:32:00,
2013-01-25 20:42:00,60.0,46.0,30.12,NE,37,7.0,8.0,59,0.00,,,-99.99,,2013-01-26 02:42:00,
2013-01-25 20:52:00,59.0,44.0,30.12,NNE,33,4.0,10.0,58,0.00,,,-99.99,,2013-01-26 02:52:00,
2013-01-25 21:02:00,57.0,43.0,30.14,North,11,5.0,9.0,60,0.00,,,-99.99,,2013-01-26 03:02:00,
2013-01-25 21:11:00,57.0,43.0,30.14,North,11,5.0,9.0,60,0.00,,,-99.99,,2013-01-26 03:11:00,
2013-01-25 21:21:00,57.0,43.0,30.14,North,11,5.0,9.0,60,0.00,,,-99.99,,2013-01-26 03:21:00,
2013-01-25 21:31:00,56.0,43.0,30.14,NNE,25,4.0,11.0,61,0.00,,,-99.99,,2013-01-26 03:31:00,
2013-01-25 21:42:00,56.0,43.0,30.14,NNE,25,4.0,11.0,61,0.00,,,-99.99,,2013-01-26 03:42:00,
2013-01-25 21:52:00,55.0,42.0,30.15,NE,51,7.0,9.0,62,0.00,,,-99.99,,2013-01-26 03:52:00,
2013-01-25 22:02:00,54.0,42.0,30.15,NE,50,3.0,9.0,63,0.00,,,-99.99,,2013-01-26 04:02:00,
2013-01-25 22:12:00,54.0,42.0,30.15,NE,50,3.0,9.0,63,0.00,,,-99.99,,2013-01-26 04:12:00,
2013-01-25 22:21:00,53.0,42.0,30.16,North,5,2.0,5.0,65,0.00,,,-99.99,,2013-01-26 04:21:00,
2013-01-25 22:32:00,52.0,42.0,30.16,NE,34,1.0,6.0,68,0.00,,,-99.99,,2013-01-26 04:32:00,
2013-01-25 22:42:00,52.0,42.0,30.16,NE,34,1.0,6.0,68,0.00,,,-99.99,,2013-01-26 04:42:00,
2013-01-25 22:52:00,52.0,42.0,30.16,NE,34,1.0,6.0,68,0.00,,,-99.99,,2013-01-26 04:52:00,
2013-01-25 23:03:00,50.0,41.0,30.17,NNE,33,3.0,8.0,70,0.00,,,-99.99,,2013-01-26 05:03:00,
2013-01-25 23:12:00,50.0,41.0,30.17,NNE,33,3.0,8.0,70,0.00,,,-99.99,,2013-01-26 05:12:00,
2013-01-25 23:23:00,49.0,40.0,30.17,NE,46,5.0,7.0,71,0.00,,,-99.99,,2013-01-26 05:23:00,
2013-01-25 23:33:00,49.0,40.0,30.17,North,9,4.0,7.0,71,0.00,,,-99.99,,2013-01-26 05:33:00,
2013-01-25 23:41:00,49.0,40.0,30.17,North,9,4.0,7.0,71,0.00,,,-99.99,,2013-01-26 05:41:00,
2013-01-25 23:52:00,49.0,40.0,30.18,North,4,1.0,3.0,72,0.00,,,-99.99,,2013-01-26 05:52:00,